Regional Weather Roundup
Issued by NWS Boston, MA

Home | Current Version | Previous Version | Text Only | Print | Product List | Glossary On
Versions: 1 2 3 4 5 6 7 8 9 10 11 12 13 14 15 16 17 18 19 20 21 22 23 24 25 26 27
000
ASUS41 KBOX 010410
RWRBOX

REGIONAL WEATHER ROUNDUP
NATIONAL WEATHER SERVICE TAUNTON MA
1200 AM EDT SAT NOV 01 2014

NOTE:  "FAIR" INDICATES FEW OR NO CLOUDS BELOW 12,000 FEET WITH NO
SIGNIFICANT WEATHER AND/OR OBSTRUCTIONS TO VISIBILITY.  THE FOLLOWING
OBSERVATION LOCATIONS DO NOT REPORT PRESENT WEATHER...PROVINCETOWN...
SMITHFIELD...BLOCK ISLAND...KEENE...AND OXFORD.

MAZALL-010500-
EASTERN MASSACHUSETTS

CITY           SKY/WX    TMP DP  RH WIND       PRES   REMARKS
BOSTON         CLOUDY    48  35  60 N12       29.96F
BEVERLY        CLOUDY    47  33  58 N6        29.96F
LAWRENCE       MOCLDY    42  36  79 N7        30.00F
BEDFORD        CLOUDY    45  35  68 NE7       29.96F
BLUE HILL        N/A     46  34  62 NE17G24   29.92F
NORWOOD        CLOUDY    49  35  58 NE7G17    29.94F
MARSHFIELD     NOT AVBL
PLYMOUTH       CLOUDY    50  38  63 NE13G20   29.93F
TAUNTON        CLOUDY    49  36  61 VRB3      29.92F
NEW BEDFORD    CLOUDY    50  38  63 NE9G20    29.91F
$$

MAZALL-010500-
CAPE COD AND THE ISLANDS

CITY           SKY/WX    TMP DP  RH WIND       PRES   REMARKS
FALMOUTH       CLOUDY    50  39  66 NE12G23   29.90F
HYANNIS        CLOUDY    51  39  63 NE12G23   29.88F
CHATHAM        CLOUDY    51  39  63 NE9G21    29.91F
PROVINCETOWN   CLOUDY    50  -2  11 NE16G25   29.93F
NANTUCKET      CLOUDY    52  42  69 NE22      29.86F
MARTHAS VNYRD  MOCLDY    50  39  66 NE21G31   29.87F
$$

MAZALL-010500-
CENTRAL AND WESTERN MASSACHUSETTS

CITY           SKY/WX    TMP DP  RH WIND       PRES   REMARKS
WORCESTER      CLOUDY    43  34  70 NE6       29.95F
FITCHBURG      CLOUDY    45  34  65 N5        29.99F
ORANGE         CLOUDY    45  35  68 N3        29.96F
SPRINGFIELD    CLOUDY    44  39  82 N6        29.96S
WESTFIELD      CLOUDY    45  41  86 N5        29.96F
NORTH ADAMS    CLOUDY    45  35  68 E7        29.96F
PITTSFIELD     LGT RAIN  41  38  89 E3        29.94S
$$

RIZALL-010500-
RHODE ISLAND

CITY           SKY/WX    TMP DP  RH WIND       PRES   REMARKS
PROVIDENCE     CLOUDY    48  37  65 NE13      29.93F
NEWPORT        CLOUDY    51  37  58 NE12      29.90F
BLOCK ISLAND   CLOUDY    52  39  62 NE20G29   29.87F
SMITHFIELD     CLOUDY    46  30  53 NE9       29.92F
WESTERLY       CLOUDY    49  39  68 NE8G17    29.89F
$$

CTZALL-010500-
CONNECTICUT

CITY           SKY/WX    TMP DP  RH WIND       PRES   REMARKS
BRADLEY INTL   CLOUDY    46  40  79 N8        29.94F
HARTFORD       CLOUDY    47  41  80 N8        29.94F
BRIDGEPORT     CLOUDY    48  43  82 NE16      29.90F
DANBURY        LGT RAIN  45  40  82 NE7       29.92F
GROTON         LGT RAIN  47  40  76 NE16      29.88F
NEW HAVEN      CLOUDY    48  42  80 N13       29.90F
CHESTER        NOT AVBL
MERIDEN        CLOUDY    46  41  82 VRB7      29.92F
WILLIMANTIC    CLOUDY    48  38  68 NE10      29.92F
OXFORD         CLOUDY    43  36  75 NE9G20    29.92S
$$

MEZ002-015-021-024-NHZ003-005-008-011-012-014-VTZ005-008-010500-
NORTHERN NEW ENGLAND

CITY           SKY/WX    TMP DP  RH WIND       PRES   REMARKS
PORTLAND ME    PTCLDY    40  32  73 N6        30.03F
BANGOR ME      CLOUDY    42  35  76 N8        30.05S
CONCORD NH     CLEAR     34  32  92 CALM      30.01S
MANCHESTER NH  MOCLDY    40  33  76 N5        29.98F
NASHUA NH      PTCLDY    43  36  76 CALM      30.00F
PORTSMOUTH NH  MOCLDY    42  34  71 N7        29.98F
JAFFREY NH     MOCLDY    38  34  85 CALM      29.97F
KEENE NH       CLOUDY    43  30  61 N5        29.98F
BURLINGTON VT  CLOUDY    40  27  59 N7        30.05S
MT. WASHINGTON FOG       19  19 100 SE24        N/A  VSB 1/16WCI   2
$$

NYZ052-076-010500-
EASTERN NEW YORK

CITY           SKY/WX    TMP DP  RH WIND       PRES   REMARKS
ALBANY         LGT RAIN  45  36  70 N6        29.98S
NEW YORK CITY  LGT RAIN  49  46  90 NE24      29.86F
$$

ANZALL-010500-
MARINE OBSERVATIONS

STATION/POSITION TIME  TEMP    WIND        PRES    VSBY  WAVE
                       AIR SEA DIR/SP/G                  HT/PER
                 (UTC) (F)     (DEG/KT/KT) (MB)    (MI)  (FT/S)
BOSTON BUOY      0350   50 54   50/ 19/ 23 1014.1F         4/ 5
BUZZARDS BAY     0300           40/ 26/ 30 1012.9F
NANTUCKET SOUND  0350   53 56   30/ 23/ 27 1011.3F         4/ 4
MASS BAY-STELLWA 0304   50 54   30/ 16/ 19   N/A    1 7/8  4/ 5
ISLE OF SHOALS   0400   49      40/ 20/ 23 1014.3F
S OF BLOCK IS    0308      60                N/A           7/ 6
$$

......................KEY.........................
  SKY/WX - SKY CONDITION/PRESENT WEATHER
  TMP    - TEMPERATURE IN FAHRENHEIT
  DWPT   - DEWPOINT IN FAHRENHEIT
  RH     - RELATIVE HUMIDITY IN PERCENT
  WIND   - DIRECTION AND SPEED IN MPH
  PRES   - MEAN SEA LEVEL PRESSURE IN INCHES OF HG
  WCI    - WIND CHILL INDEX
  VSB    - VISIBILITY IN MILES
  HX     - HEAT INDEX
  TC     - TEMPERATURE IN CELSIUS
  VRB    - VARIABLE WIND DIRECTION
  N/A    - NOT AVAILABLE



USA.gov is the U.S. government's official web portal to all federal, state and local government web resources and services.